Weather History for Istanbul / Ataturk, Turkey

Change the Weather History Date:

Friday, March 1, 2013

  Actual Average Record
Temperature  
Mean Temperature 39 °F -  
Max Temperature 46 °F 51 °F - ()
Min Temperature 32 °F 39 °F - ()
Degree Days  
Heating Degree Days 26    
Moisture  
Dew Point 31 °F    
Average Humidity 70    
Maximum Humidity 93    
Minimum Humidity 47    
Precipitation  
Precipitation 0.00 in - - ()
Sea Level Pressure  
Sea Level Pressure 30.12 in    
Wind  
Wind Speed 5 mph ()    
Max Wind Speed 10 mph    
Max Gust Speed -    
Visibility 3.4 miles    
Events      
T = Trace of Precipitation, MM = Missing Value Source: Averaged Metar Reports

Daily Weather History Graph

Daily Weather History Graph

Search for Another Location

Airport:

Trip Planner

Search our weather history database for the weather conditions in past years. The results will help you decide how hot, cold, wet, or windy it might be!

Date:

Astronomy

Mar. 01, 2013 Rise Set
Actual Time 6:38 AM EET 5:55 PM EET
Civil Twilight 6:11 AM EET 6:23 PM EET
Nautical Twilight 5:39 AM EET 6:55 PM EET
Astronomical Twilight 5:07 AM EET 7:27 PM EET
Moon 10:09 PM EET (3/1) 8:10 AM EET (3/1)
Length of Visible Light 12h 11m
Length of Day
11h 16m
Waning Gibbous, 86% of the Moon is Illuminated
Mar 1
Waning Gibbous
Mar 4
Last Quarter
Mar 11
New
Mar 19
First Quarter
Mar 27
Full

Hourly Weather History & Observations

Time (EET) Temp. Windchill Dew Point Humidity Pressure Visibility Wind Dir Wind Speed Gust Speed Precip Events Conditions
12:20 AM 35.6 °F 31.7 °F 30.2 °F 81% 30.21 in 3.7 mi NNW 4.6 mph - N/A   Partly Cloudy
12:50 AM 35.6 °F 30.7 °F 32.0 °F 87% 30.21 in 3.7 mi NNW 5.8 mph - N/A   Partly Cloudy
1:20 AM 37.4 °F - 32.0 °F 81% 30.21 in 2.5 mi Calm Calm - N/A   Partly Cloudy
1:50 AM 37.4 °F 32.8 °F 30.2 °F 75% 30.21 in 2.5 mi NNW 5.8 mph - N/A   Partly Cloudy
2:00 AM 36 °F - 30 °F 70% 30.22 in 2 mi NNW 5.8 mph - -   Mist
2:20 AM 35.6 °F 29.9 °F 30.2 °F 81% 30.18 in 2.5 mi NNW 6.9 mph - N/A   Partly Cloudy
2:50 AM 33.8 °F 27.7 °F 30.2 °F 87% 30.18 in 2.5 mi NW 6.9 mph - N/A   Partly Cloudy
3:20 AM 33.8 °F 27.7 °F 30.2 °F 87% 30.18 in 2.5 mi NNW 6.9 mph - N/A   Partly Cloudy
3:50 AM 32.0 °F 25.6 °F 30.2 °F 93% 30.18 in 2.5 mi North 6.9 mph - N/A   Partly Cloudy
4:20 AM 32.0 °F 24.2 °F 30.2 °F 93% 30.18 in - NNW 9.2 mph - N/A   Partly Cloudy
4:50 AM 33.8 °F 25.8 °F 30.2 °F 87% 30.18 in - North 10.4 mph - N/A   Partly Cloudy
5:20 AM 33.8 °F 26.4 °F 32.0 °F 93% 30.18 in - North 9.2 mph - N/A   Partly Cloudy
5:50 AM 33.8 °F 27.7 °F 32.0 °F 93% 30.15 in - North 6.9 mph - N/A   Partly Cloudy
6:20 AM 32.0 °F 24.2 °F 30.2 °F 93% 30.15 in - North 9.2 mph - N/A   Partly Cloudy
6:50 AM 33.8 °F 27.7 °F 32.0 °F 93% 30.15 in - North 6.9 mph - N/A   Partly Cloudy
7:20 AM 35.6 °F - 32.0 °F 87% 30.15 in - Variable 1.2 mph - N/A   Mist
7:50 AM 37.4 °F - 33.8 °F 87% 30.15 in - NW 2.3 mph - N/A   Mist
8:00 AM 37 °F - 33 °F 79% 30.18 in 2 mi NW 2.3 mph - -   Mist
8:20 AM 39.2 °F - 33.8 °F 81% 30.15 in - NNW 2.3 mph - N/A   Mist
8:50 AM 41.0 °F 39.0 °F 33.8 °F 76% 30.18 in 2.8 mi NW 3.5 mph - N/A   Mist
9:20 AM 42.8 °F - 33.8 °F 70% 30.18 in 3.7 mi Variable 2.3 mph - N/A   Unknown
9:50 AM 44.6 °F - 32.0 °F 61% 30.15 in 3.7 mi West 1.2 mph - N/A   Unknown
10:20 AM 44.6 °F 42.2 °F 32.0 °F 61% 30.15 in 6.2 mi SW 4.6 mph - N/A   Partly Cloudy
10:50 AM 44.6 °F 41.4 °F 30.2 °F 57% 30.15 in - SSW 5.8 mph - N/A   Clear
11:20 AM 44.6 °F 41.4 °F 28.4 °F 53% 30.15 in - SSW 5.8 mph - N/A   Clear
11:50 AM 46.4 °F 43.5 °F 32.0 °F 57% 30.15 in - SSW 5.8 mph - N/A   Clear
12:20 PM 44.6 °F 40.7 °F 32.0 °F 61% 30.15 in - SSW 6.9 mph - N/A   Clear
12:50 PM 46.4 °F 42.9 °F 33.8 °F 62% 30.12 in - SSW 6.9 mph - N/A   Clear
1:20 PM 46.4 °F 42.9 °F 32.0 °F 57% 30.12 in - SW 6.9 mph - N/A   Clear
1:50 PM 46.4 °F 42.9 °F 33.8 °F 62% 30.09 in - SW 6.9 mph - N/A   Clear
2:00 PM 46 °F - 32 °F 47% 30.12 in 6 mi SW 6.9 mph - -  
2:20 PM 44.6 °F 40.2 °F 30.2 °F 57% 30.09 in - SW 8.1 mph - N/A   Clear
2:50 PM 46.4 °F 42.9 °F 32.0 °F 57% 30.09 in - SW 6.9 mph - N/A   Clear
3:20 PM 46.4 °F 42.9 °F 30.2 °F 53% 30.09 in - WSW 6.9 mph - N/A   Clear
3:50 PM 44.6 °F 40.7 °F 28.4 °F 53% 30.06 in - SW 6.9 mph - N/A   Clear
4:20 PM 44.6 °F 39.7 °F 30.2 °F 57% 30.06 in - SW 9.2 mph - N/A   Clear
4:50 PM 44.6 °F 41.4 °F 32.0 °F 61% 30.06 in - SW 5.8 mph - N/A   Clear
5:20 PM 44.6 °F 42.2 °F 30.2 °F 57% 30.04 in - SW 4.6 mph - N/A   Clear
5:50 PM 42.8 °F 40.1 °F 30.2 °F 61% 30.04 in - SW 4.6 mph - N/A   Clear
6:20 PM 42.8 °F 41.1 °F 30.2 °F 61% 30.04 in - SW 3.5 mph - N/A   Clear
6:50 PM 42.8 °F 41.1 °F 30.2 °F 61% 30.04 in - SW 3.5 mph - N/A   Clear
7:20 PM 42.8 °F 41.1 °F 30.2 °F 61% 30.04 in - SW 3.5 mph - N/A   Clear
7:50 PM 42.8 °F 41.1 °F 30.2 °F 61% 30.04 in - WSW 3.5 mph - N/A   Clear
8:00 PM 43 °F - 31 °F 50% 30.06 in 6 mi WSW 3.5 mph - -  
8:20 PM 42.8 °F 40.1 °F 32.0 °F 66% 30.04 in - SW 4.6 mph - N/A   Clear
8:50 PM 42.8 °F 40.1 °F 32.0 °F 66% 30.04 in - SW 4.6 mph - N/A   Clear
9:20 PM 42.8 °F 40.1 °F 32.0 °F 66% 30.04 in - SW 4.6 mph - N/A   Clear
9:50 PM 42.8 °F 41.1 °F 32.0 °F 66% 30.04 in - WSW 3.5 mph - N/A   Clear
10:20 PM 42.8 °F 40.1 °F 32.0 °F 66% 30.04 in - SW 4.6 mph - N/A   Clear
10:50 PM 42.8 °F 40.1 °F 32.0 °F 66% 30.04 in - South 4.6 mph - N/A   Clear
11:20 PM 41.0 °F 38.0 °F 32.0 °F 70% 30.04 in - SSW 4.6 mph - N/A   Clear
11:50 PM 41.0 °F 38.0 °F 32.0 °F 70% 30.04 in - SSW 4.6 mph - N/A   Clear